Preview of NWS' New Version of Forecast
This preview is not operational and should not be used for support decisions.

Regional Weather Roundup (RWR)

Issued by San Angelo, TX (SJT)

                            
000
ASUS44 KSJT 160810
RWRSJT
WEST CENTRAL TEXAS REGIONAL WEATHER ROUNDUP
NATIONAL WEATHER SERVICE SAN ANGELO TX
300 AM CDT TUE OCT 16 2018

NOTE: "FAIR" INDICATES FEW OR NO CLOUDS BELOW 12,000 FEET WITH NO
SIGNIFICANT WEATHER AND/OR OBSTRUCTIONS TO VISIBILITY.

TXZ049-054-064>066-071>073-076>078-098-099-113-114-127-128-139-140-
154-155-168>170-160900
...LOCATIONS ACROSS WEST CENTRAL TEXAS...
  
CITY           SKY/WX    TMP DP  RH WIND       PRES   REMARKS
SAN ANGELO       N/A    N/A N/A N/A MISG      30.29S                  
ABILENE        LGT RAIN  41  39  93 N15       30.28F WCI  33          
DYESS AFB      LGT RAIN  41  35  79 N15       30.34S WCI  33          
JUNCTION       RAIN      42  40  92 VRB3      30.27R FOG              
SWEETWATER     CLOUDY    39  38  95 N9        30.34R WCI  33          
BROWNWOOD      CLOUDY    41  39  93 N13G22    30.24R WCI  34          
COLEMAN        RAIN      41  39  91 N15       30.27R WCI  33          
SONORA         LGT RAIN  39  39 100 N8        30.32R WCI  34          
OZONA          RAIN      37  36  93 N15       30.31S WCI  28          
BRADY          HVY RAIN  41  39  93 N14G25    30.24R WCI  33          
$$

TEXAS PANHANDLE/OKLAHOMA PANHANDLE
  
CITY           SKY/WX    TMP DP  RH WIND       PRES   REMARKS
AMARILLO       CLOUDY    41  27  57 N5        30.35S WCI  38          
BORGER         CLOUDY    41  30  65 CALM      30.35F                  
CANADIAN       CLEAR     38  36  91 CALM      30.35F                  
DALHART        MOCLDY    33  24  69 NW7       30.36F WCI  27          
DUMAS          CLOUDY    38  30  72 W6        30.35S WCI  33          
GUYMON         NOT AVBL                                               
HEREFORD       CLOUDY    39  35  86 CALM      30.36F                  
PAMPA          CLOUDY    41  29  62 NW5       30.36R WCI  38          
PERRYTON       CLOUDY    35  32  89 W3        30.35S                  
$$

SOUTHERN PANHANDLE/SOUTH PLAINS/ROLLING PLAINS
  
CITY           SKY/WX    TMP DP  RH WIND       PRES   REMARKS
LUBBOCK        CLOUDY    37  34  89 N9        30.34R WCI  30          
SNYDER         RAIN      40  36  87 N12G17    30.32S WCI  32          
CHILDRESS      CLOUDY    43  34  70 N12       30.37R WCI  37          
SEMINOLE       CLOUDY    38  34  84 N12       30.38S WCI  31          
$$

PERMIAN BASIN
  
CITY           SKY/WX    TMP DP  RH WIND       PRES   REMARKS
MIDLAND        CLOUDY    42  33  70 N15G23    30.32F WCI  34          
ODESSA         CLOUDY    42  30  62 NE10      30.33S WCI  36          
WINK           CLOUDY    42  31  64 N10       30.33S WCI  36          
$$

FAR WEST/SOUTHWEST MOUNTAINS/TRANS PECOS
  
CITY           SKY/WX    TMP DP  RH WIND       PRES   REMARKS
ALPINE         CLOUDY    33  33  99 NE10      30.35S WCI  25          
DRYDEN         NOT AVBL                                               
EL PASO        CLOUDY    45  29  53 E9        30.26F                  
FORT STOCKTON  CLOUDY    38  36  92 E6        30.34S WCI  33          
GUADALUPE PASS NOT AVBL                                               
MARFA          NOT AVBL                                               
PECOS          CLOUDY    43  31  63 N7        30.35F WCI  39          
$$

DALLAS/FORT WORTH METROPLEX
  
CITY           SKY/WX    TMP DP  RH WIND       PRES   REMARKS
DFW AIRPORT    RAIN      45  43  93 N15       30.23F FOG     WCI  38  
FTW MEACHAM    RAIN      44  42  93 N13       30.24F WCI  38          
DAL-EXECUTIVE  LGT RAIN  45  43  93 N13       30.23F WCI  39          
GRAND PRAIRIE  CLOUDY    45  45 100 N16       30.26F WCI  37          
ADDISON        RAIN      44  43  95 N12       30.27S WCI  38          
MESQUITE       CLOUDY    46  46  99 N14G20    30.24F WCI  39          
LANCASTER      RAIN      45  44  95 N14       30.24F WCI  39          
$$

NORTH CENTRAL TEXAS
  
CITY           SKY/WX    TMP DP  RH WIND       PRES   REMARKS
SHRMAN/DENISON CLOUDY    45  42  89 NE9       30.30S WCI  40          
GAINESVILLE    CLOUDY    46  36  68 N9G17     30.30F                  
BRIDGEPORT     CLOUDY    46  37  71 NE7       30.30F                  
DENTON         CLOUDY    46  40  79 NE15G24   30.26F WCI  40          
WAXAHACHIE     RAIN      45  45 100 N15       30.24S WCI  38          
GRANBURY       RAIN      46  43  90 N15       30.25F WCI  39          
$$

WESTERN NORTH TEXAS
  
CITY           SKY/WX    TMP DP  RH WIND       PRES   REMARKS
WICHITA FALLS  CLOUDY    45  33  63 N15       30.33R WCI  38          
VERNON         CLOUDY    46  35  67 N10       30.36R                  
BRECKENRIDGE   NOT AVBL                                               
COMANCHE       RAIN      42  42 100 MISG      30.24S                  
$$

CENTRAL AND SOUTH CENTRAL TEXAS
  
CITY           SKY/WX    TMP DP  RH WIND       PRES   REMARKS
AUSTIN/BERGSTM LGT RAIN  49  46  90 N10       30.15S                  
WACO           HVY RAIN  47  45  93 N17       30.19R                  
HILLSBORO      CLOUDY    46  46 100 N15G23    30.20F WCI  40          
TEMPLE         LGT RAIN N/A N/A N/A N17G23    30.17S                  
KILLEEN-GRAY   HVY RAIN  45  44  96 N9        30.18  FOG     WCI  40  
FORT HOOD      HVY RAIN  46  44  95 N8        30.15R FOG              
GEORGETOWN     HVY RAIN  46  45  96 N12       30.19S FOG              
LAGO VISTA     RAIN      45  45 100 N7        30.17R                  
SAN MARCOS     CLOUDY   N/A N/A N/A MISG      30.18R HAZE             
NEW BRAUNFELS  LGT RAIN  47  45  93 NW8       30.16R                  
RANDOLPH AFB   LGT RAIN  47  44  92 NW9       30.17                   
SAN ANTONIO    LGT RAIN  46  44  93 N9        30.17F FOG              
STINSON        CLOUDY    50  44  80 N6        30.15F                  
PLEASANTON     NOT AVBL                                               
LA GRANGE      LGT SNOW  49  49 100 N8        30.11R VSB 1            
GIDDINGS       RAIN      45  43  95 N7        30.13S                  
$$

EAST TEXAS
  
CITY           SKY/WX    TMP DP  RH WIND       PRES   REMARKS
PARIS          LGT RAIN  44  44 100 N9        30.26F WCI  39          
CLARKSVILLE    NOT AVBL                                               
TYLER          CLOUDY    49  49 100 NE10      30.19S                  
LONGVIEW       LGT RAIN  50  50 100 N8G20     30.19R                  
PALESTINE      LGT SNOW  49  49 100 N9        30.17F                  
NACOGDOCHES    HVY RAIN  52  52 100 VRB7      30.14F                  
$$

TEXAS HILL COUNTRY AND EDWARDS PLATEAU
  
CITY           SKY/WX    TMP DP  RH WIND       PRES   REMARKS
LLANO          LGT RAIN N/A N/A N/A NW5       30.25R                  
HORSESHOE BAY  LGT RAIN  45  44  97 NW8       30.20R                  
KERRVILLE      LGT RAIN  42  39  91 NW8       30.19R WCI  36          
FREDERICKSBRG  LGT RAIN  41  39  93 NW10G16   30.21R WCI  35          
ROCKSPRINGS    LGT RAIN  39  39 100 N13G21    30.26S WCI  32          
HONDO          LGT RAIN  47  46  97 N7        30.19S                  
UVALDE         HVY RAIN  45  44  97 NW12      30.23F WCI  39          
DEL RIO        LGT RAIN  45  45 100 NW13      30.27F WCI  39          
$$

SOUTHEAST TEXAS
  
CITY           SKY/WX    TMP DP  RH WIND       PRES   REMARKS
COLLEGE STN    HVY RAIN  49  49 100 N16G22    30.10F FOG              
CALDWELL       RAIN      48  47  95 N12       30.13R                  
CROCKETT       RAIN      50  50 100 N9        30.16S                  
BRENHAM        LGT RAIN  51  51 100 N7        30.11R                  
HUNTSVILLE     RAIN      50  50 100 MISG      30.10F                  
CONROE         CLOUDY    55  55 100 N6        30.08F                  
HOUSTON BUSH   CLOUDY    57  57 100 N10       30.05F FOG              
HOUSTON HOBBY  CLOUDY    59  58  96 N13       30.04F FOG              
PERLAND        CLOUDY    60  60 100 N8        30.05S FOG              
WHARTON        CLOUDY    52  50  93 N6        30.08R                  
$$

THE UPPER TEXAS COAST
  
CITY           SKY/WX    TMP DP  RH WIND       PRES   REMARKS
ORANGE         CLOUDY    67  67 100 NE6       30.05R                  
PORT ARTHUR    CLOUDY    69  66  90 NE9       30.02R                  
GALVESTON      CLOUDY    70  69  97 N17       30.02F                  
ANGLETON       CLOUDY    58  58 100 N9        30.03F FOG              
BAY CITY       NOT AVBL                                               
$$

TEXAS COASTAL BEND, RIO GRANDE PLAINS DEEP SOUTH TEXAS
  
CITY           SKY/WX    TMP DP  RH WIND       PRES   REMARKS
VICTORIA       LGT RAIN  50  49  96 NW12      30.11S FOG              
BEEVILLE       CLOUDY    47  47  97 NW14      30.14F                  
ROCKPORT       CLOUDY    51  50  96 NW17      30.10F                  
PORT ARANSAS   NOT AVBL                                               
PORT LAVACA    CLOUDY    53  51  94 NW14      30.10S FOG              
CORPUS CHRISTI DRIZZLE   50  48  93 NW17      30.12F FOG              
KINGSVILLE NAS CLOUDY    51  48  89 NW15      30.13                   
COTULLA        LGT RAIN  46  46 100 NW13      30.21S                  
LAREDO         CLOUDY    48  45  89 NW15      30.20F                  
BROWNSVILLE    CLOUDY    55  52  89 NW15G25   30.10F                  
PORT ISABEL    CLOUDY    54  49  83 NW21G29   30.09F                  
HEBBRONVILLE   CLOUDY    46  45  94 N17G23    30.17F WCI  39          
MCALLEN        CLOUDY    54  49  83 NW15      30.15F                  
WESLACO        NOT AVBL                                               
FALFURRIAS     CLOUDY    51  47  87 NW15G22   30.14S                  
EDINBURG       HVY RAIN  52  49  88 NW13G21   30.15S                  
$$